This demonstration page uses our WeatherBlox Daily Observations layout. Learn more.

Hourly Observations for October 22, 2019

Temp ( °F °C ) Dew Point ( °F °C ) Humidity (%) Winds ( mph kmh ) Pressure ( in mb ) Visibility ( mi km ) Precip ( " mm )
12:16 am 00:16 Mostly Cloudy 57 14 48 9 72 72 W 16 26 29.77 1008 10 16.0934 N/A
12:35 am 00:35 Mostly Cloudy 55 13 48 9 77 77 W 13 20 29.77 1008 10 16.0934 N/A
12:36 am 00:36 Mostly Cloudy 55 13 48 9 77 77 W 12 19 29.77 1008 10 16.0934 N/A
12:55 am 00:55 Partly Cloudy 54 12 48 9 82 82 W 12 19 29.77 1008 10 16.0934 N/A
1:15 am 01:15 Mostly Cloudy 54 12 48 9 82 82 W 7 11 29.77 1008 10 16.0934 N/A
1:16 am 01:16 Mostly Cloudy 54 12 48 9 82 82 WSW 7 11 29.77 1008 10 16.0934 N/A
1:35 am 01:35 Mostly Cloudy 54 12 48 9 82 82 SSW 7 11 29.77 1008 10 16.0934 N/A
1:56 am 01:56 Mostly Cloudy 52 11 48 9 88 88 S 5 7 29.77 1008 10 16.0934 N/A
2:15 am 02:15 Partly Cloudy 52 11 48 9 88 88 S 6 9 29.74 1007 10 16.0934 N/A
2:35 am 02:35 Clear 50 10 48 9 94 94 S 6 9 29.74 1007 10 16.0934 N/A
2:55 am 02:55 Clear 50 10 48 9 94 94 S 6 9 29.74 1007 10 16.0934 N/A
2:56 am 02:56 Clear 50 10 48 9 94 94 S 7 11 29.74 1007 10 16.0934 N/A
3:15 am 03:15 Clear 50 10 48 9 94 94 S 7 11 29.74 1007 10 16.0934 N/A
3:16 am 03:16 Clear 50 10 48 9 94 94 S 6 9 29.74 1007 10 16.0934 N/A
3:35 am 03:35 Clear 50 10 48 9 94 94 S 7 11 29.74 1007 10 16.0934 N/A
3:55 am 03:55 Clear 50 10 48 9 94 94 SSW 6 9 29.74 1007 10 16.0934 N/A
4:15 am 04:15 Clear 50 10 46 8 88 88 SSW 7 11 29.71 1006 10 16.0934 N/A
4:35 am 04:35 Clear 50 10 46 8 88 88 SSW 7 11 29.71 1006 10 16.0934 N/A
4:56 am 04:56 Clear 48 9 46 8 94 94 SSW 8 13 29.71 1006 10 16.0934 N/A
5:15 am 05:15 Clear 48 9 46 8 94 94 SSW 6 9 29.71 1006 10 16.0934 N/A
5:35 am 05:35 Clear 48 9 46 8 94 94 SSW 6 9 29.71 1006 10 16.0934 N/A
5:36 am 05:36 Clear 48 9 46 8 94 94 SSW 6 9 29.71 1006 10 16.0934 N/A
5:55 am 05:55 Clear 48 9 46 8 94 94 S 8 13 29.71 1006 10 16.0934 N/A
6:15 am 06:15 Clear 48 9 46 8 94 94 SSW 8 13 29.71 1006 10 16.0934 N/A
6:35 am 06:35 Clear 48 9 46 8 94 94 SSW 8 13 29.71 1006 10 16.0934 N/A
6:55 am 06:55 Clear 48 9 46 8 94 94 SSW 8 13 29.74 1007 10 16.0934 N/A
6:56 am 06:56 Clear 48 9 46 8 94 94 SSW 9 15 29.74 1007 10 16.0934 N/A
7:15 am 07:15 Clear 48 9 46 8 94 94 SSW 7 11 29.74 1007 10 16.0934 N/A
7:35 am 07:35 Clear 46 8 46 8 100 100 SSW 9 15 29.77 1008 10 16.0934 N/A
7:55 am 07:55 Clear 48 9 45 7 87 87 WSW 10 17 29.74 1007 10 16.0934 N/A
8:15 am 08:15 Sunny 48 9 45 7 87 87 SW 12 19 29.74 1007 10 16.0934 N/A
8:36 am 08:36 Sunny 48 9 45 7 87 87 SW 10 17 29.8 1009 10 16.0934 N/A
8:55 am 08:55 Sunny 48 9 45 7 87 87 SW 10 17 29.8 1009 10 16.0934 N/A
9:15 am 09:15 Sunny 50 10 45 7 82 82 WSW 14 22 29.77 1008 10 16.0934 N/A
9:36 am 09:36 Sunny 50 10 45 7 82 82 SW 15 24 29.77 1008 10 16.0934 N/A
9:55 am 09:55 Sunny 52 11 45 7 77 77 WSW 18 30 29.77 1008 10 16.0934 N/A
10:15 am 10:15 Sunny 52 11 43 6 72 72 WSW 15 24 29.77 1008 10 16.0934 N/A
10:16 am 10:16 Sunny 52 11 43 6 72 72 WSW 15 24 29.77 1008 10 16.0934 N/A
10:35 am 10:35 Sunny 54 12 43 6 67 67 WSW 14 22 29.77 1008 10 16.0934 N/A
10:36 am 10:36 Sunny 54 12 43 6 67 67 WSW 14 22 29.77 1008 10 16.0934 N/A
10:55 am 10:55 Partly Cloudy 54 12 43 6 67 67 SW 14 22 29.77 1008 10 16.0934 N/A
11:15 am 11:15 Mostly Cloudy 54 12 43 6 67 67 WSW 22 35 29.77 1008 10 16.0934 N/A
11:36 am 11:36 Mostly Cloudy 54 12 43 6 67 67 SW 17 28 29.77 1008 10 16.0934 N/A
11:55 am 11:55 Mostly Cloudy 55 13 43 6 63 63 WSW 17 28 29.77 1008 10 16.0934 N/A
12:15 pm 12:15 Mostly Cloudy 54 12 43 6 67 67 WSW 16 26 29.8 1009 10 16.0934 N/A
12:35 pm 12:35 Mostly Cloudy 55 13 43 6 63 63 WSW 15 24 29.8 1009 10 16.0934 N/A
12:55 pm 12:55 Mostly Cloudy 55 13 43 6 63 63 SW 18 30 29.8 1009 10 16.0934 N/A
1:16 pm 13:16 Mostly Cloudy 55 13 43 6 63 63 SW 14 22 29.8 1009 10 16.0934 N/A
1:35 pm 13:35 Mostly Cloudy 54 12 43 6 67 67 WSW 16 26 29.8 1009 10 16.0934 N/A
1:55 pm 13:55 Mostly Cloudy 54 12 43 6 67 67 SW 16 26 29.8 1009 10 16.0934 N/A
2:15 pm 14:15 Mostly Cloudy 54 12 43 6 67 67 SW 20 31 29.8 1009 10 16.0934 N/A
2:16 pm 14:16 Mostly Cloudy 54 12 43 6 67 67 SW 20 31 29.8 1009 10 16.0934 N/A
2:35 pm 14:35 Mostly Cloudy 55 13 43 6 63 63 WSW 13 20 29.8 1009 10 16.0934 N/A
2:55 pm 14:55 Partly Cloudy 55 13 43 6 63 63 WSW 17 28 29.8 1009 10 16.0934 N/A
3:15 pm 15:15 Mostly Cloudy 54 12 43 6 67 67 WSW 16 26 29.8 1009 10 16.0934 N/A
3:36 pm 15:36 Mostly Cloudy 55 13 43 6 63 63 WSW 14 22 29.8 1009 10 16.0934 N/A
3:56 pm 15:56 Mostly Cloudy 57 14 45 7 63 63 WSW 14 22 29.8 1009 10 16.0934 N/A
4:16 pm 16:16 Mostly Cloudy 55 13 43 6 63 63 W 12 19 29.8 1009 10 16.0934 N/A
4:35 pm 16:35 Mostly Cloudy 55 13 43 6 63 63 WSW 15 24 29.83 1010 10 16.0934 N/A
4:55 pm 16:55 Mostly Cloudy 55 13 43 6 63 63 WSW 16 26 29.83 1010 10 16.0934 N/A
4:56 pm 16:56 Mostly Cloudy 55 13 43 6 63 63 WSW 16 26 29.83 1010 10 16.0934 N/A
5:15 pm 17:15 Partly Cloudy 55 13 43 6 63 63 W 16 26 29.83 1010 10 16.0934 N/A
5:36 pm 17:36 Partly Cloudy 55 13 43 6 63 63 WSW 16 26 29.83 1010 10 16.0934 N/A
5:56 pm 17:56 Partly Cloudy 55 13 43 6 63 63 WSW 15 24 29.83 1010 10 16.0934 N/A
6:15 pm 18:15 Mostly Cloudy 54 12 43 6 67 67 W 16 26 29.83 1010 10 16.0934 N/A
6:36 pm 18:36 Mostly Cloudy 54 12 43 6 67 67 WSW 14 22 29.85 1011 10 16.0934 N/A
6:55 pm 18:55 Partly Cloudy 52 11 41 5 67 67 WSW 10 17 29.85 1011 10 16.0934 N/A
7:15 pm 19:15 Clear 52 11 41 5 67 67 WSW 7 11 29.85 1011 10 16.0934 N/A
7:35 pm 19:35 Clear 50 10 41 5 71 71 WSW 7 11 29.91 1013 10 16.0934 N/A
7:36 pm 19:36 Clear 50 10 41 5 71 71 WSW 7 11 29.91 1013 10 16.0934 N/A
7:55 pm 19:55 Clear 50 10 41 5 71 71 SW 7 11 29.91 1013 10 16.0934 N/A
8:15 pm 20:15 Clear 50 10 41 5 71 71 SW 7 11 29.91 1013 10 16.0934 N/A
8:16 pm 20:16 Clear 50 10 41 5 71 71 SW 7 11 29.91 1013 10 16.0934 N/A
8:35 pm 20:35 Clear 48 9 41 5 76 76 SSW 7 11 29.91 1013 10 16.0934 N/A
8:55 pm 20:55 Clear 48 9 41 5 76 76 SW 7 11 29.91 1013 10 16.0934 N/A
9:15 pm 21:15 Clear 48 9 43 6 82 82 SW 8 13 29.91 1013 10 16.0934 N/A
9:16 pm 21:16 Clear 48 9 43 6 82 82 SW 8 13 29.91 1013 10 16.0934 N/A
9:35 pm 21:35 Clear 48 9 43 6 82 82 SW 8 13 29.91 1013 10 16.0934 N/A
9:55 pm 21:55 Clear 48 9 43 6 82 82 SW 8 13 29.94 1014 10 16.0934 N/A
10:15 pm 22:15 Clear 48 9 43 6 82 82 WSW 8 13 29.94 1014 10 16.0934 N/A
10:16 pm 22:16 Clear 48 9 43 6 82 82 WSW 7 11 29.94 1014 10 16.0934 N/A
10:35 pm 22:35 Clear 46 8 43 6 87 87 WSW 7 11 29.94 1014 10 16.0934 N/A
10:55 pm 22:55 Clear 46 8 43 6 87 87 SW 8 13 29.94 1014 10 16.0934 N/A
10:56 pm 22:56 Clear 46 8 43 6 87 87 SW 8 13 29.94 1014 10 16.0934 N/A
11:15 pm 23:15 Clear 46 8 41 5 82 82 SW 7 11 29.94 1014 10 16.0934 N/A
11:16 pm 23:16 Clear 46 8 41 5 82 82 SW 6 9 29.94 1014 10 16.0934 N/A
11:35 pm 23:35 Clear 46 8 41 5 82 82 SW 7 11 29.94 1014 10 16.0934 N/A
11:55 pm 23:55 Clear 46 8 41 5 82 82 WSW 7 11 29.94 1014 10 16.0934 N/A

Powered by AerisWeather